Time,TemperatureF,DewpointF,PressureIn,WindDirection,WindDirectionDegrees,WindSpeedMPH,WindSpeedGustMPH,Humidity,HourlyPrecipIn,Conditions,Clouds,dailyrainin,SoftwareType,DateUTC
2013-05-12 00:00:00,40.4,34.1,29.97,SW,229,0.0,3.0,78,0.00,,---,0.07,VWS V14.01,2013-05-12 04:00:00,
2013-05-12 00:01:00,40.3,34.0,29.97,SW,229,0.0,0.0,78,0.00,,---,0.00,VWS V14.01,2013-05-12 04:01:00,
2013-05-12 00:06:00,40.2,34.2,29.98,SW,229,0.0,1.0,79,0.00,,---,0.00,VWS V14.01,2013-05-12 04:06:00,
2013-05-12 00:11:00,40.0,34.0,29.97,West,260,1.0,1.0,79,0.00,,---,0.00,VWS V14.01,2013-05-12 04:11:00,
2013-05-12 00:16:00,39.9,34.2,29.97,SW,214,0.0,1.0,80,0.00,,---,0.00,VWS V14.01,2013-05-12 04:16:00,
2013-05-12 00:21:00,39.5,33.8,29.97,West,267,0.0,2.0,80,0.00,,---,0.00,VWS V14.01,2013-05-12 04:21:00,
2013-05-12 00:26:00,39.1,33.8,29.97,West,267,0.0,2.0,81,0.00,,---,0.00,VWS V14.01,2013-05-12 04:26:00,
2013-05-12 00:30:00,38.8,33.8,29.97,West,267,0.0,2.0,82,0.00,,---,0.00,VWS V14.01,2013-05-12 04:30:00,
2013-05-12 00:31:00,38.7,33.7,29.98,West,267,0.0,0.0,82,0.00,,---,0.00,VWS V14.01,2013-05-12 04:31:00,
2013-05-12 00:36:00,38.2,33.5,29.98,West,267,0.0,0.0,83,0.00,,---,0.00,VWS V14.01,2013-05-12 04:36:00,
2013-05-12 00:41:00,37.9,33.5,29.98,West,267,0.0,0.0,84,0.00,,---,0.00,VWS V14.01,2013-05-12 04:41:00,
2013-05-12 00:46:00,37.5,33.4,29.98,West,267,0.0,0.0,85,0.00,,---,0.00,VWS V14.01,2013-05-12 04:46:00,
2013-05-12 00:51:00,37.3,33.5,29.98,West,267,0.0,1.0,86,0.00,,---,0.00,VWS V14.01,2013-05-12 04:51:00,
2013-05-12 00:56:00,37.1,33.3,29.98,West,267,0.0,1.0,86,0.00,,---,0.00,VWS V14.01,2013-05-12 04:56:00,
2013-05-12 01:00:00,37.2,33.4,29.98,SSW,208,0.0,1.0,86,0.00,,---,0.00,VWS V14.01,2013-05-12 05:00:00,
2013-05-12 01:01:00,37.3,33.5,29.98,SSW,208,0.0,0.0,86,0.00,,---,0.00,VWS V14.01,2013-05-12 05:01:00,
2013-05-12 01:06:00,37.5,33.4,29.98,SSW,207,0.0,1.0,85,0.00,,---,0.00,VWS V14.01,2013-05-12 05:06:00,
2013-05-12 01:11:00,37.6,33.5,29.98,South,173,0.0,1.0,85,0.00,,---,0.00,VWS V14.01,2013-05-12 05:11:00,
2013-05-12 01:16:00,37.6,33.5,29.98,South,173,0.0,1.0,85,0.00,,---,0.00,VWS V14.01,2013-05-12 05:16:00,
2013-05-12 01:21:00,37.5,33.4,29.98,South,173,0.0,1.0,85,0.00,,---,0.00,VWS V14.01,2013-05-12 05:21:00,
2013-05-12 01:26:00,37.4,33.3,29.98,South,173,0.0,1.0,85,0.00,,---,0.00,VWS V14.01,2013-05-12 05:26:00,
2013-05-12 01:30:00,37.2,33.4,29.98,South,174,0.0,1.0,86,0.00,,---,0.00,VWS V14.01,2013-05-12 05:30:00,
2013-05-12 01:31:00,37.2,33.4,29.98,South,173,0.0,0.0,86,0.00,,---,0.00,VWS V14.01,2013-05-12 05:31:00,
2013-05-12 01:36:00,37.1,33.3,29.98,SSW,203,0.0,0.0,86,0.00,,---,0.00,VWS V14.01,2013-05-12 05:36:00,
2013-05-12 01:41:00,37.2,33.4,29.98,South,176,0.0,0.0,86,0.00,,---,0.00,VWS V14.01,2013-05-12 05:41:00,
2013-05-12 01:46:00,37.2,33.1,29.98,South,176,0.0,0.0,85,0.00,,---,0.00,VWS V14.01,2013-05-12 05:46:00,
2013-05-12 01:51:00,37.1,33.3,29.98,SE,141,0.0,1.0,86,0.00,,---,0.00,VWS V14.01,2013-05-12 05:51:00,
2013-05-12 01:56:00,37.2,33.4,29.98,SW,229,1.0,2.0,86,0.00,,---,0.00,VWS V14.01,2013-05-12 05:56:00,
2013-05-12 02:00:00,37.3,33.5,29.98,SW,235,0.0,2.0,86,0.00,,---,0.00,VWS V14.01,2013-05-12 06:00:00,
2013-05-12 02:01:00,37.3,33.5,29.98,SW,236,0.0,1.0,86,0.00,,---,0.00,VWS V14.01,2013-05-12 06:01:00,
2013-05-12 02:06:00,37.2,33.4,29.98,SW,234,0.0,1.0,86,0.00,,---,0.00,VWS V14.01,2013-05-12 06:06:00,
2013-05-12 02:11:00,37.1,33.3,29.98,SSW,203,0.0,1.0,86,0.00,,---,0.00,VWS V14.01,2013-05-12 06:11:00,
2013-05-12 02:16:00,37.1,33.6,29.98,SSW,207,0.0,1.0,87,0.00,,---,0.00,VWS V14.01,2013-05-12 06:16:00,
2013-05-12 02:21:00,37.1,33.3,29.98,SW,229,0.0,2.0,86,0.00,,---,0.00,VWS V14.01,2013-05-12 06:21:00,
2013-05-12 02:26:00,37.1,33.3,29.98,WSW,238,0.0,2.0,86,0.00,,---,0.00,VWS V14.01,2013-05-12 06:26:00,
2013-05-12 02:30:00,37.1,33.3,29.98,WSW,239,1.0,2.0,86,0.00,,---,0.00,VWS V14.01,2013-05-12 06:30:00,
2013-05-12 02:31:00,37.1,33.3,29.98,SSW,195,0.0,1.0,86,0.00,,---,0.00,VWS V14.01,2013-05-12 06:31:00,
2013-05-12 02:37:00,37.1,33.3,29.98,SSW,198,0.0,1.0,86,0.00,,---,0.00,VWS V14.01,2013-05-12 06:37:00,
2013-05-12 02:42:00,37.0,33.5,29.98,SW,214,1.0,2.0,87,0.00,,---,0.00,VWS V14.01,2013-05-12 06:42:00,
2013-05-12 02:47:00,37.1,33.6,29.98,WSW,240,0.0,2.0,87,0.00,,---,0.00,VWS V14.01,2013-05-12 06:47:00,
2013-05-12 02:52:00,37.1,33.6,29.97,SW,218,0.0,2.0,87,0.00,,---,0.00,VWS V14.01,2013-05-12 06:52:00,
2013-05-12 02:57:00,37.1,33.6,29.97,SSE,148,1.0,3.0,87,0.00,,---,0.00,VWS V14.01,2013-05-12 06:57:00,
2013-05-12 03:00:00,37.1,33.6,29.97,SW,226,0.0,4.0,87,0.00,,---,0.00,VWS V14.01,2013-05-12 07:00:00,
2013-05-12 03:02:00,37.1,33.6,29.97,SW,226,1.0,1.0,87,0.00,,---,0.00,VWS V14.01,2013-05-12 07:02:00,
2013-05-12 03:07:00,37.1,33.6,29.98,SE,133,2.0,2.0,87,0.00,,---,0.00,VWS V14.01,2013-05-12 07:07:00,
2013-05-12 03:12:00,37.0,33.5,29.98,SW,219,0.0,2.0,87,0.00,,---,0.00,VWS V14.01,2013-05-12 07:12:00,
2013-05-12 03:17:00,36.9,33.7,29.97,SSW,207,0.0,2.0,88,0.00,,---,0.00,VWS V14.01,2013-05-12 07:17:00,
2013-05-12 03:22:00,36.8,33.6,29.97,WSW,253,1.0,2.0,88,0.00,,---,0.00,VWS V14.01,2013-05-12 07:22:00,
2013-05-12 03:27:00,36.8,33.6,29.97,SW,224,1.0,2.0,88,0.00,,---,0.00,VWS V14.01,2013-05-12 07:27:00,
2013-05-12 03:30:00,36.9,33.7,29.97,WSW,239,1.0,3.0,88,0.00,,---,0.00,VWS V14.01,2013-05-12 07:30:00,
2013-05-12 03:32:00,36.9,33.7,29.98,SE,127,0.0,2.0,88,0.00,,---,0.00,VWS V14.01,2013-05-12 07:32:00,
2013-05-12 03:37:00,37.0,33.8,29.98,WSW,255,0.0,4.0,88,0.00,,---,0.00,VWS V14.01,2013-05-12 07:37:00,
2013-05-12 03:42:00,36.9,33.7,29.97,SW,235,0.0,4.0,88,0.00,,---,0.00,VWS V14.01,2013-05-12 07:42:00,
2013-05-12 03:47:00,36.9,33.7,29.97,WSW,238,3.0,4.0,88,0.00,,---,0.00,VWS V14.01,2013-05-12 07:47:00,
2013-05-12 03:52:00,36.9,33.7,29.97,West,264,0.0,5.0,88,0.00,,---,0.00,VWS V14.01,2013-05-12 07:52:00,
2013-05-12 03:57:00,36.8,33.6,29.97,WNW,284,0.0,5.0,88,0.00,,---,0.00,VWS V14.01,2013-05-12 07:57:00,
2013-05-12 04:00:00,36.8,33.6,29.97,West,273,1.0,5.0,88,0.00,,---,0.00,VWS V14.01,2013-05-12 08:00:00,
2013-05-12 04:02:00,36.8,33.6,29.97,SW,222,4.0,4.0,88,0.00,,---,0.00,VWS V14.01,2013-05-12 08:02:00,
2013-05-12 04:07:00,36.8,33.6,29.98,WNW,284,1.0,5.0,88,0.00,,---,0.00,VWS V14.01,2013-05-12 08:07:00,
2013-05-12 04:12:00,36.8,33.6,29.98,WSW,239,1.0,5.0,88,0.00,,---,0.00,VWS V14.01,2013-05-12 08:12:00,
2013-05-12 04:17:00,36.7,33.5,29.97,ESE,107,0.0,5.0,88,0.00,,---,0.00,VWS V14.01,2013-05-12 08:17:00,
2013-05-12 04:22:00,36.6,33.4,29.98,SSW,205,0.0,5.0,88,0.00,,---,0.00,VWS V14.01,2013-05-12 08:22:00,
2013-05-12 04:27:00,36.5,33.3,29.97,SW,231,0.0,5.0,88,0.00,,---,0.00,VWS V14.01,2013-05-12 08:27:00,
2013-05-12 04:30:00,36.4,33.2,29.97,SSW,203,0.0,5.0,88,0.00,,---,0.00,VWS V14.01,2013-05-12 08:30:00,
2013-05-12 04:32:00,36.4,33.5,29.98,SW,231,0.0,2.0,89,0.00,,---,0.00,VWS V14.01,2013-05-12 08:32:00,
2013-05-12 04:37:00,36.2,33.0,29.97,SW,222,0.0,2.0,88,0.00,,---,0.00,VWS V14.01,2013-05-12 08:37:00,
2013-05-12 04:42:00,36.2,33.0,29.97,WSW,248,0.0,3.0,88,0.00,,---,0.00,VWS V14.01,2013-05-12 08:42:00,
2013-05-12 04:47:00,36.1,32.9,29.98,WSW,240,0.0,3.0,88,0.00,,---,0.00,VWS V14.01,2013-05-12 08:47:00,
2013-05-12 04:52:00,36.0,32.8,29.98,SW,229,0.0,3.0,88,0.00,,---,0.00,VWS V14.01,2013-05-12 08:52:00,
2013-05-12 04:57:00,36.0,32.8,29.97,WSW,246,0.0,3.0,88,0.00,,---,0.00,VWS V14.01,2013-05-12 08:57:00,
2013-05-12 05:00:00,35.9,32.7,29.97,WSW,248,3.0,3.0,88,0.00,,---,0.00,VWS V14.01,2013-05-12 09:00:00,
2013-05-12 05:02:00,35.9,32.7,29.97,WSW,246,0.0,4.0,88,0.00,,---,0.00,VWS V14.01,2013-05-12 09:02:00,
2013-05-12 05:07:00,36.0,32.8,29.97,SW,232,0.0,4.0,88,0.00,,---,0.00,VWS V14.01,2013-05-12 09:07:00,
2013-05-12 05:12:00,36.0,32.5,29.98,WNW,293,0.0,4.0,87,0.00,,---,0.00,VWS V14.01,2013-05-12 09:12:00,
2013-05-12 05:17:00,36.1,32.3,29.98,NW,314,1.0,4.0,86,0.00,,---,0.00,VWS V14.01,2013-05-12 09:17:00,
2013-05-12 05:22:00,36.3,32.2,29.97,NW,322,1.0,4.0,85,0.00,,---,0.00,VWS V14.01,2013-05-12 09:22:00,
2013-05-12 05:27:00,36.6,32.2,29.97,North,358,1.0,4.0,84,0.00,,---,0.00,VWS V14.01,2013-05-12 09:27:00,
2013-05-12 05:30:00,36.7,32.3,29.97,NNE,28,2.0,4.0,84,0.00,,---,0.00,VWS V14.01,2013-05-12 09:30:00,
2013-05-12 05:32:00,36.7,32.3,29.97,East,98,1.0,2.0,84,0.00,,---,0.00,VWS V14.01,2013-05-12 09:32:00,
2013-05-12 05:37:00,36.8,32.1,29.98,North,6,0.0,5.0,83,0.00,,---,0.00,VWS V14.01,2013-05-12 09:37:00,
2013-05-12 05:42:00,37.1,32.1,29.98,NW,321,0.0,5.0,82,0.00,,---,0.00,VWS V14.01,2013-05-12 09:42:00,
2013-05-12 05:47:00,37.2,32.2,29.98,WNW,286,0.0,5.0,82,0.00,,---,0.00,VWS V14.01,2013-05-12 09:47:00,
2013-05-12 05:52:00,37.3,32.0,29.98,NW,322,1.0,5.0,81,0.00,,---,0.00,VWS V14.01,2013-05-12 09:52:00,
2013-05-12 05:57:00,37.3,32.0,29.98,SW,216,0.0,5.0,81,0.00,,---,0.00,VWS V14.01,2013-05-12 09:57:00,
2013-05-12 06:00:00,37.3,31.7,29.98,SSW,205,0.0,5.0,80,0.00,,---,0.00,VWS V14.01,2013-05-12 10:00:00,
2013-05-12 06:02:00,37.3,32.0,29.98,WSW,242,4.0,5.0,81,0.00,,---,0.00,VWS V14.01,2013-05-12 10:02:00,
2013-05-12 06:07:00,37.3,31.7,29.98,North,359,0.0,5.0,80,0.00,,---,0.00,VWS V14.01,2013-05-12 10:07:00,
2013-05-12 06:12:00,37.2,31.6,29.98,NNE,14,1.0,5.0,80,0.00,,---,0.00,VWS V14.01,2013-05-12 10:12:00,
2013-05-12 06:17:00,37.2,31.9,29.99,WNW,296,1.0,5.0,81,0.00,,---,0.00,VWS V14.01,2013-05-12 10:17:00,
2013-05-12 06:22:00,37.1,31.5,29.99,North,10,0.0,5.0,80,0.00,,---,0.00,VWS V14.01,2013-05-12 10:22:00,
2013-05-12 06:27:00,37.1,31.8,29.99,NE,44,0.0,5.0,81,0.00,,---,0.00,VWS V14.01,2013-05-12 10:27:00,
2013-05-12 06:30:00,37.0,31.4,29.99,North,352,1.0,5.0,80,0.00,,---,0.00,VWS V14.01,2013-05-12 10:30:00,
2013-05-12 06:32:00,36.9,31.6,29.99,NNW,335,1.0,2.0,81,0.00,,---,0.00,VWS V14.01,2013-05-12 10:32:00,
2013-05-12 06:37:00,36.8,31.5,29.99,NNE,24,2.0,3.0,81,0.00,,---,0.00,VWS V14.01,2013-05-12 10:37:00,
2013-05-12 06:42:00,36.7,31.4,29.99,North,5,1.0,3.0,81,0.00,,---,0.00,VWS V14.01,2013-05-12 10:42:00,
2013-05-12 06:47:00,36.7,31.4,29.99,NW,308,2.0,3.0,81,0.00,,---,0.00,VWS V14.01,2013-05-12 10:47:00,
2013-05-12 06:52:00,36.9,31.6,29.99,WNW,300,3.0,3.0,81,0.00,,---,0.00,VWS V14.01,2013-05-12 10:52:00,
2013-05-12 06:57:00,37.1,31.8,29.99,NNE,13,1.0,3.0,81,0.00,,---,0.00,VWS V14.01,2013-05-12 10:57:00,
2013-05-12 07:00:00,37.1,31.8,29.99,West,277,1.0,3.0,81,0.00,,---,0.00,VWS V14.01,2013-05-12 11:00:00,
2013-05-12 07:02:00,37.1,31.8,29.99,NW,316,1.0,4.0,81,0.00,,---,0.00,VWS V14.01,2013-05-12 11:02:00,
2013-05-12 07:07:00,37.2,31.9,29.99,SSW,204,0.0,4.0,81,0.00,,---,0.00,VWS V14.01,2013-05-12 11:07:00,
2013-05-12 07:12:00,37.3,31.7,29.99,NNW,348,2.0,5.0,80,0.00,,---,0.00,VWS V14.01,2013-05-12 11:12:00,
2013-05-12 07:17:00,37.4,31.8,30.00,WNW,295,3.0,5.0,80,0.00,,---,0.00,VWS V14.01,2013-05-12 11:17:00,
2013-05-12 07:22:00,37.6,32.0,30.00,West,277,0.0,5.0,80,0.00,,---,0.00,VWS V14.01,2013-05-12 11:22:00,
2013-05-12 07:27:00,37.9,32.3,30.00,WNW,289,0.0,5.0,80,0.00,,---,0.00,VWS V14.01,2013-05-12 11:27:00,
2013-05-12 07:30:00,37.9,32.3,30.00,WNW,284,1.0,5.0,80,0.00,,---,0.00,VWS V14.01,2013-05-12 11:30:00,
2013-05-12 07:32:00,38.0,32.4,30.00,WNW,285,2.0,4.0,80,0.00,,---,0.00,VWS V14.01,2013-05-12 11:32:00,
2013-05-12 07:37:00,38.3,32.4,30.00,SE,139,2.0,4.0,79,0.00,,---,0.00,VWS V14.01,2013-05-12 11:37:00,
2013-05-12 07:42:00,38.8,32.5,30.00,WNW,300,1.0,7.0,78,0.00,,---,0.00,VWS V14.01,2013-05-12 11:42:00,
2013-05-12 07:47:00,39.3,32.7,30.00,WSW,253,1.0,7.0,77,0.00,,---,0.00,VWS V14.01,2013-05-12 11:47:00,
2013-05-12 07:52:00,39.7,33.1,30.00,NW,325,2.0,7.0,77,0.00,,---,0.00,VWS V14.01,2013-05-12 11:52:00,
2013-05-12 07:57:00,40.1,32.8,30.00,NW,312,2.0,7.0,75,0.00,,---,0.00,VWS V14.01,2013-05-12 11:57:00,
2013-05-12 08:00:00,40.3,32.7,30.00,WNW,295,0.0,7.0,74,0.00,,---,0.00,VWS V14.01,2013-05-12 12:00:00,
2013-05-12 08:02:00,40.4,33.1,30.00,ENE,58,2.0,6.0,75,0.00,,---,0.00,VWS V14.01,2013-05-12 12:02:00,
2013-05-12 08:07:00,40.8,33.2,30.00,NE,34,1.0,8.0,74,0.00,,---,0.00,VWS V14.01,2013-05-12 12:07:00,
2013-05-12 08:12:00,41.1,33.5,30.01,NNE,23,3.0,8.0,74,0.00,,---,0.00,VWS V14.01,2013-05-12 12:12:00,
2013-05-12 08:17:00,41.5,33.5,30.00,NW,321,3.0,8.0,73,0.00,,---,0.00,VWS V14.01,2013-05-12 12:17:00,
2013-05-12 08:22:00,41.6,33.3,30.00,NW,314,7.0,10.0,72,0.00,,---,0.00,VWS V14.01,2013-05-12 12:22:00,
2013-05-12 08:27:00,41.6,32.2,30.01,NW,322,6.0,13.0,69,0.00,,---,0.00,VWS V14.01,2013-05-12 12:27:00,
2013-05-12 08:30:00,41.7,33.0,30.00,NNW,335,6.0,13.0,71,0.00,,---,0.00,VWS V14.01,2013-05-12 12:30:00,
2013-05-12 08:32:00,41.7,32.7,30.01,West,266,4.0,10.0,70,0.00,,---,0.00,VWS V14.01,2013-05-12 12:32:00,
2013-05-12 08:38:00,41.7,32.3,30.01,NNW,339,6.0,14.0,69,0.00,,---,0.00,VWS V14.01,2013-05-12 12:38:00,
2013-05-12 08:43:00,41.9,32.8,30.01,NNE,32,3.0,14.0,70,0.00,,---,0.00,VWS V14.01,2013-05-12 12:43:00,
2013-05-12 08:48:00,41.9,32.5,30.01,NNW,338,9.0,14.0,69,0.00,,---,0.00,VWS V14.01,2013-05-12 12:48:00,
2013-05-12 08:53:00,41.9,32.5,30.01,NNW,329,4.0,14.0,69,0.00,,---,0.00,VWS V14.01,2013-05-12 12:53:00,
2013-05-12 08:58:00,41.9,33.2,30.01,NNW,328,7.0,14.0,71,0.00,,---,0.00,VWS V14.01,2013-05-12 12:58:00,
2013-05-12 09:00:00,42.3,33.2,30.01,NW,321,5.0,14.0,70,0.00,,---,0.00,VWS V14.01,2013-05-12 13:00:00,
2013-05-12 09:03:00,42.5,33.1,30.02,NNW,342,4.0,9.0,69,0.00,,---,0.00,VWS V14.01,2013-05-12 13:03:00,
2013-05-12 09:08:00,42.4,33.0,30.02,NNW,339,10.0,12.0,69,0.00,,---,0.00,VWS V14.01,2013-05-12 13:08:00,
2013-05-12 09:13:00,42.8,33.3,30.02,WNW,300,4.0,13.0,69,0.00,,---,0.00,VWS V14.01,2013-05-12 13:13:00,
2013-05-12 09:18:00,43.3,32.7,30.02,WNW,300,7.0,13.0,66,0.00,,---,0.00,VWS V14.01,2013-05-12 13:18:00,
2013-05-12 09:23:00,42.7,31.8,30.02,North,356,17.0,18.0,65,0.00,,---,0.00,VWS V14.01,2013-05-12 13:23:00,
2013-05-12 09:28:00,42.9,32.3,30.02,NNW,335,5.0,18.0,66,0.00,,---,0.00,VWS V14.01,2013-05-12 13:28:00,
2013-05-12 09:30:00,43.1,32.2,30.02,NNW,342,11.0,18.0,65,0.00,,---,0.00,VWS V14.01,2013-05-12 13:30:00,
2013-05-12 09:33:00,42.8,31.5,30.02,SW,228,5.0,14.0,64,0.00,,---,0.00,VWS V14.01,2013-05-12 13:33:00,
2013-05-12 09:38:00,42.9,31.6,30.02,North,5,8.0,18.0,64,0.00,,---,0.00,VWS V14.01,2013-05-12 13:38:00,
2013-05-12 09:43:00,43.4,32.8,30.02,North,9,7.0,18.0,66,0.00,,---,0.00,VWS V14.01,2013-05-12 13:43:00,
2013-05-12 09:48:00,43.2,32.2,30.02,NNW,330,8.0,18.0,65,0.00,,---,0.00,VWS V14.01,2013-05-12 13:48:00,
2013-05-12 09:53:00,42.8,31.5,30.02,NW,306,10.0,18.0,64,0.00,,---,0.00,VWS V14.01,2013-05-12 13:53:00,
2013-05-12 09:58:00,43.0,32.4,30.02,NNW,338,4.0,18.0,66,0.00,,---,0.00,VWS V14.01,2013-05-12 13:58:00,
2013-05-12 10:00:00,43.1,32.9,30.03,NNW,330,4.0,18.0,67,0.00,,---,0.00,VWS V14.01,2013-05-12 14:00:00,
2013-05-12 10:03:00,43.1,32.5,30.03,WNW,298,6.0,12.0,66,0.00,,---,0.00,VWS V14.01,2013-05-12 14:03:00,
2013-05-12 10:08:00,42.9,32.3,30.03,WNW,287,4.0,12.0,66,0.00,,---,0.00,VWS V14.01,2013-05-12 14:08:00,
2013-05-12 10:13:00,42.9,33.1,30.03,WNW,300,6.0,12.0,68,0.00,,---,0.00,VWS V14.01,2013-05-12 14:13:00,
2013-05-12 10:18:00,43.6,33.0,30.03,NNW,328,8.0,17.0,66,0.00,,---,0.00,VWS V14.01,2013-05-12 14:18:00,
2013-05-12 10:23:00,44.4,32.6,30.03,WNW,288,3.0,17.0,63,0.00,,---,0.00,VWS V14.01,2013-05-12 14:23:00,
2013-05-12 10:28:00,45.4,34.3,30.03,NW,321,4.0,17.0,65,0.00,,---,0.00,VWS V14.01,2013-05-12 14:28:00,
2013-05-12 10:30:00,45.6,33.8,30.03,NW,313,4.0,17.0,63,0.00,,---,0.00,VWS V14.01,2013-05-12 14:30:00,
2013-05-12 10:33:00,45.5,33.2,30.03,NNW,333,6.0,8.0,62,0.00,,---,0.00,VWS V14.01,2013-05-12 14:33:00,
2013-05-12 10:38:00,45.5,34.0,30.03,NNW,329,4.0,10.0,64,0.00,,---,0.00,VWS V14.01,2013-05-12 14:38:00,
2013-05-12 10:43:00,45.6,32.9,30.03,WSW,239,4.0,13.0,61,0.00,,---,0.00,VWS V14.01,2013-05-12 14:43:00,
2013-05-12 10:48:00,45.2,33.4,30.03,WSW,243,4.0,13.0,63,0.00,,---,0.00,VWS V14.01,2013-05-12 14:48:00,
2013-05-12 10:53:00,44.4,32.2,30.04,NW,316,7.0,14.0,62,0.00,,---,0.00,VWS V14.01,2013-05-12 14:53:00,
2013-05-12 10:58:00,43.9,32.5,30.04,North,352,3.0,14.0,64,0.00,,---,0.00,VWS V14.01,2013-05-12 14:58:00,
2013-05-12 11:00:00,44.2,33.6,30.04,North,349,8.0,14.0,66,0.00,,---,0.00,VWS V14.01,2013-05-12 15:00:00,
2013-05-12 11:03:00,44.5,33.1,30.04,WNW,283,9.0,13.0,64,0.00,,---,0.00,VWS V14.01,2013-05-12 15:03:00,
2013-05-12 11:08:00,44.3,31.7,30.04,NNW,345,6.0,18.0,61,0.00,,---,0.00,VWS V14.01,2013-05-12 15:08:00,
2013-05-12 11:13:00,44.2,33.2,30.04,NNW,331,4.0,18.0,65,0.00,,---,0.00,VWS V14.01,2013-05-12 15:13:00,
2013-05-12 11:18:00,43.8,32.4,30.05,WNW,298,5.0,18.0,64,0.00,,---,0.00,VWS V14.01,2013-05-12 15:18:00,
2013-05-12 11:23:00,44.3,32.9,30.05,NW,325,5.0,18.0,64,0.00,,---,0.00,VWS V14.01,2013-05-12 15:23:00,
2013-05-12 11:28:00,44.3,32.1,30.05,NW,309,3.0,18.0,62,0.00,,---,0.00,VWS V14.01,2013-05-12 15:28:00,
2013-05-12 11:30:00,44.4,32.2,30.05,WNW,302,4.0,18.0,62,0.00,,---,0.00,VWS V14.01,2013-05-12 15:30:00,
2013-05-12 11:33:00,44.5,32.7,30.05,North,354,3.0,8.0,63,0.00,,---,0.00,VWS V14.01,2013-05-12 15:33:00,
2013-05-12 11:38:00,44.4,31.8,30.05,NW,308,5.0,12.0,61,0.00,,---,0.00,VWS V14.01,2013-05-12 15:38:00,
2013-05-12 11:43:00,44.2,32.4,30.05,West,273,5.0,12.0,63,0.00,,---,0.00,VWS V14.01,2013-05-12 15:43:00,
2013-05-12 11:48:00,43.8,30.8,30.05,NW,314,11.0,14.0,60,0.00,,---,0.00,VWS V14.01,2013-05-12 15:48:00,
2013-05-12 11:53:00,43.6,30.2,30.05,NNW,328,5.0,14.0,59,0.00,,---,0.00,VWS V14.01,2013-05-12 15:53:00,
2013-05-12 11:58:00,43.7,31.5,30.06,North,352,6.0,14.0,62,0.00,,---,0.00,VWS V14.01,2013-05-12 15:58:00,
2013-05-12 12:00:00,43.8,31.2,30.06,NW,319,3.0,14.0,61,0.00,,---,0.00,VWS V14.01,2013-05-12 16:00:00,
2013-05-12 12:03:00,43.8,30.8,30.06,NW,323,7.0,8.0,60,0.00,,---,0.00,VWS V14.01,2013-05-12 16:03:00,
2013-05-12 12:08:00,44.2,31.6,30.06,NW,316,5.0,9.0,61,0.00,,---,0.00,VWS V14.01,2013-05-12 16:08:00,
2013-05-12 12:13:00,45.0,31.5,30.06,SW,236,5.0,9.0,59,0.00,,---,0.00,VWS V14.01,2013-05-12 16:13:00,
2013-05-12 12:18:00,45.9,32.8,30.06,NNW,327,6.0,9.0,60,0.00,,---,0.00,VWS V14.01,2013-05-12 16:18:00,
2013-05-12 12:23:00,45.7,32.6,30.06,WNW,297,3.0,9.0,60,0.00,,---,0.00,VWS V14.01,2013-05-12 16:23:00,
2013-05-12 12:28:00,46.4,34.1,30.06,NNW,332,5.0,10.0,62,0.00,,---,0.00,VWS V14.01,2013-05-12 16:28:00,
2013-05-12 12:30:00,46.5,32.1,30.06,WSW,246,9.0,10.0,57,0.00,,---,0.00,VWS V14.01,2013-05-12 16:30:00,
2013-05-12 12:33:00,46.1,31.7,30.06,WNW,301,4.0,14.0,57,0.00,,---,0.00,VWS V14.01,2013-05-12 16:33:00,
2013-05-12 12:38:00,45.8,31.5,30.06,NW,323,3.0,14.0,57,0.00,,---,0.00,VWS V14.01,2013-05-12 16:38:00,
2013-05-12 12:43:00,45.7,30.9,30.06,NNW,333,4.0,14.0,56,0.00,,---,0.00,VWS V14.01,2013-05-12 16:43:00,
2013-05-12 12:48:00,46.1,30.4,30.06,SSW,200,3.0,14.0,54,0.00,,---,0.00,VWS V14.01,2013-05-12 16:48:00,
2013-05-12 12:53:00,46.4,31.1,30.06,NNW,335,5.0,15.0,55,0.00,,---,0.00,VWS V14.01,2013-05-12 16:53:00,
2013-05-12 12:58:00,46.5,31.7,30.07,North,11,4.0,15.0,56,0.00,,---,0.00,VWS V14.01,2013-05-12 16:58:00,
2013-05-12 13:00:00,46.8,32.0,30.07,NNE,30,3.0,15.0,56,0.00,,---,0.00,VWS V14.01,2013-05-12 17:00:00,
2013-05-12 13:03:00,46.9,32.0,30.06,NW,326,5.0,9.0,56,0.00,,---,0.00,VWS V14.01,2013-05-12 17:03:00,
2013-05-12 13:08:00,46.4,30.2,30.06,NW,321,6.0,11.0,53,0.00,,---,0.00,VWS V14.01,2013-05-12 17:08:00,
2013-05-12 13:13:00,46.7,31.0,30.06,WSW,256,1.0,11.0,54,0.00,,---,0.00,VWS V14.01,2013-05-12 17:13:00,
2013-05-12 13:18:00,47.6,31.3,30.06,SSW,197,3.0,11.0,53,0.00,,---,0.00,VWS V14.01,2013-05-12 17:18:00,
2013-05-12 13:23:00,47.1,30.4,30.07,North,349,4.0,13.0,52,0.00,,---,0.00,VWS V14.01,2013-05-12 17:23:00,
2013-05-12 13:28:00,46.4,30.2,30.07,NW,308,8.0,16.0,53,0.00,,---,0.00,VWS V14.01,2013-05-12 17:28:00,
2013-05-12 13:30:00,46.5,31.7,30.07,NNE,18,7.0,16.0,56,0.00,,---,0.00,VWS V14.01,2013-05-12 17:30:00,
2013-05-12 13:33:00,46.7,31.0,30.07,NE,36,4.0,15.0,54,0.00,,---,0.00,VWS V14.01,2013-05-12 17:33:00,
2013-05-12 13:38:00,47.4,31.1,30.07,WNW,300,2.0,15.0,53,0.00,,---,0.00,VWS V14.01,2013-05-12 17:38:00,
2013-05-12 13:43:00,47.2,31.4,30.07,NW,318,4.0,15.0,54,0.00,,---,0.00,VWS V14.01,2013-05-12 17:43:00,
2013-05-12 13:48:00,47.4,31.6,30.07,NW,308,6.0,15.0,54,0.00,,---,0.00,VWS V14.01,2013-05-12 17:48:00,
2013-05-12 13:53:00,47.3,32.0,30.07,NW,325,5.0,15.0,55,0.00,,---,0.00,VWS V14.01,2013-05-12 17:53:00,
2013-05-12 13:58:00,47.3,31.5,30.07,NNW,338,5.0,15.0,54,0.00,,---,0.00,VWS V14.01,2013-05-12 17:58:00,
2013-05-12 14:00:00,47.3,31.0,30.07,North,4,3.0,15.0,53,0.00,,---,0.00,VWS V14.01,2013-05-12 18:00:00,
2013-05-12 14:03:00,47.3,31.0,30.08,WNW,294,4.0,11.0,53,0.00,,---,0.00,VWS V14.01,2013-05-12 18:03:00,
2013-05-12 14:08:00,47.5,31.2,30.07,NW,321,7.0,13.0,53,0.00,,---,0.00,VWS V14.01,2013-05-12 18:08:00,
2013-05-12 14:13:00,47.7,32.3,30.07,NW,309,3.0,13.0,55,0.00,,---,0.00,VWS V14.01,2013-05-12 18:13:00,
2013-05-12 14:18:00,48.0,31.2,30.08,NW,326,5.0,13.0,52,0.00,,---,0.00,VWS V14.01,2013-05-12 18:18:00,
2013-05-12 14:23:00,48.4,32.1,30.08,West,273,4.0,13.0,53,0.00,,---,0.00,VWS V14.01,2013-05-12 18:23:00,
2013-05-12 14:28:00,48.1,31.8,30.08,North,354,8.0,13.0,53,0.00,,---,0.00,VWS V14.01,2013-05-12 18:28:00,
2013-05-12 14:30:00,48.0,30.3,30.08,NNW,330,6.0,14.0,50,0.00,,---,0.00,VWS V14.01,2013-05-12 18:30:00,
2013-05-12 14:33:00,48.2,31.4,30.08,NNW,339,8.0,10.0,52,0.00,,---,0.00,VWS V14.01,2013-05-12 18:33:00,
2013-05-12 14:38:00,47.7,31.0,30.08,WNW,284,7.0,15.0,52,0.00,,---,0.00,VWS V14.01,2013-05-12 18:38:00,
2013-05-12 14:43:00,47.5,31.2,30.08,North,349,5.0,15.0,53,0.00,,---,0.00,VWS V14.01,2013-05-12 18:43:00,
2013-05-12 14:48:00,48.1,33.6,30.08,WSW,246,5.0,15.0,57,0.00,,---,0.00,VWS V14.01,2013-05-12 18:48:00,
2013-05-12 14:53:00,47.9,31.6,30.08,SW,214,3.0,15.0,53,0.00,,---,0.00,VWS V14.01,2013-05-12 18:53:00,
2013-05-12 14:58:00,47.9,32.1,30.08,NW,308,5.0,15.0,54,0.00,,---,0.00,VWS V14.01,2013-05-12 18:58:00,
2013-05-12 15:00:00,48.1,32.3,30.08,WNW,300,5.0,15.0,54,0.00,,---,0.00,VWS V14.01,2013-05-12 19:00:00,
2013-05-12 15:04:00,48.0,31.2,30.08,NNW,331,7.0,14.0,52,0.00,,---,0.00,VWS V14.01,2013-05-12 19:04:00,
2013-05-12 15:09:00,47.5,30.8,30.08,NNW,347,3.0,14.0,52,0.00,,---,0.00,VWS V14.01,2013-05-12 19:09:00,
2013-05-12 15:14:00,47.3,30.6,30.08,NNE,13,7.0,14.0,52,0.00,,---,0.00,VWS V14.01,2013-05-12 19:14:00,
2013-05-12 15:19:00,47.7,30.5,30.08,WNW,287,5.0,16.0,51,0.00,,---,0.00,VWS V14.01,2013-05-12 19:19:00,
2013-05-12 15:24:00,47.5,30.3,30.08,NNW,338,8.0,16.0,51,0.00,,---,0.00,VWS V14.01,2013-05-12 19:24:00,
2013-05-12 15:29:00,47.9,31.6,30.08,WNW,293,5.0,16.0,53,0.00,,---,0.00,VWS V14.01,2013-05-12 19:29:00,
2013-05-12 15:30:00,48.4,33.9,30.08,NW,305,3.0,16.0,57,0.00,,---,0.00,VWS V14.01,2013-05-12 19:30:00,
2013-05-12 15:34:00,48.6,31.8,30.08,NW,316,11.0,11.0,52,0.00,,---,0.00,VWS V14.01,2013-05-12 19:34:00,
2013-05-12 15:39:00,48.9,31.1,30.08,ENE,63,6.0,12.0,50,0.00,,---,0.00,VWS V14.01,2013-05-12 19:39:00,
2013-05-12 15:44:00,49.1,30.8,30.08,NNW,343,3.0,14.0,49,0.00,,---,0.00,VWS V14.01,2013-05-12 19:44:00,
2013-05-12 15:49:00,48.9,31.1,30.08,WNW,290,7.0,14.0,50,0.00,,---,0.00,VWS V14.01,2013-05-12 19:49:00,
2013-05-12 15:54:00,48.4,31.6,30.08,North,10,6.0,14.0,52,0.00,,---,0.00,VWS V14.01,2013-05-12 19:54:00,
2013-05-12 15:59:00,48.9,30.6,30.08,SW,224,5.0,14.0,49,0.00,,---,0.00,VWS V14.01,2013-05-12 19:59:00,
2013-05-12 16:00:00,48.7,30.9,30.08,West,281,4.0,14.0,50,0.00,,---,0.00,VWS V14.01,2013-05-12 20:00:00,
2013-05-12 16:04:00,48.4,31.1,30.08,North,354,10.0,10.0,51,0.00,,---,0.00,VWS V14.01,2013-05-12 20:04:00,
2013-05-12 16:09:00,48.0,30.8,30.08,NNW,327,8.0,14.0,51,0.00,,---,0.00,VWS V14.01,2013-05-12 20:09:00,
2013-05-12 16:14:00,47.5,30.3,30.08,NNW,338,3.0,14.0,51,0.00,,---,0.00,VWS V14.01,2013-05-12 20:14:00,
2013-05-12 16:19:00,47.5,29.8,30.08,North,358,3.0,14.0,50,0.00,,---,0.00,VWS V14.01,2013-05-12 20:19:00,
2013-05-12 16:24:00,47.5,29.8,30.09,North,6,9.0,14.0,50,0.00,,---,0.00,VWS V14.01,2013-05-12 20:24:00,
2013-05-12 16:29:00,47.4,29.7,30.08,SW,234,8.0,14.0,50,0.00,,---,0.00,VWS V14.01,2013-05-12 20:29:00,
2013-05-12 16:30:00,47.5,30.3,30.08,NW,309,5.0,14.0,51,0.00,,---,0.00,VWS V14.01,2013-05-12 20:30:00,
2013-05-12 16:34:00,48.0,29.3,30.08,North,351,6.0,10.0,48,0.00,,---,0.00,VWS V14.01,2013-05-12 20:34:00,
2013-05-12 16:39:00,48.0,29.8,30.08,NE,37,2.0,12.0,49,0.00,,---,0.00,VWS V14.01,2013-05-12 20:39:00,
2013-05-12 16:44:00,48.1,30.8,30.08,NW,326,3.0,12.0,51,0.00,,---,0.00,VWS V14.01,2013-05-12 20:44:00,
2013-05-12 16:49:00,48.5,32.2,30.08,WNW,290,3.0,12.0,53,0.00,,---,0.00,VWS V14.01,2013-05-12 20:49:00,
2013-05-12 16:54:00,48.9,32.1,30.08,NNW,346,4.0,12.0,52,0.00,,---,0.00,VWS V14.01,2013-05-12 20:54:00,
2013-05-12 16:59:00,49.5,30.1,30.08,NNW,338,6.0,12.0,47,0.00,,---,0.00,VWS V14.01,2013-05-12 20:59:00,
2013-05-12 17:00:00,49.5,30.6,30.08,North,354,4.0,12.0,48,0.00,,---,0.00,VWS V14.01,2013-05-12 21:00:00,
2013-05-12 17:04:00,49.6,31.7,30.08,NNW,335,5.0,9.0,50,0.00,,---,0.00,VWS V14.01,2013-05-12 21:04:00,
2013-05-12 17:09:00,49.5,31.1,30.08,NNW,344,8.0,15.0,49,0.00,,---,0.00,VWS V14.01,2013-05-12 21:09:00,
2013-05-12 17:14:00,48.8,29.5,30.08,WNW,296,2.0,15.0,47,0.00,,---,0.00,VWS V14.01,2013-05-12 21:14:00,
2013-05-12 17:19:00,49.2,29.9,30.08,WNW,293,8.0,15.0,47,0.00,,---,0.00,VWS V14.01,2013-05-12 21:19:00,
2013-05-12 17:24:00,48.7,29.9,30.08,NNW,341,4.0,15.0,48,0.00,,---,0.00,VWS V14.01,2013-05-12 21:24:00,
2013-05-12 17:29:00,48.9,30.1,30.08,NW,323,4.0,15.0,48,0.00,,---,0.00,VWS V14.01,2013-05-12 21:29:00,
2013-05-12 17:30:00,49.0,29.7,30.08,NW,326,6.0,15.0,47,0.00,,---,0.00,VWS V14.01,2013-05-12 21:30:00,
2013-05-12 17:34:00,48.7,28.9,30.08,SSW,203,3.0,8.0,46,0.00,,---,0.00,VWS V14.01,2013-05-12 21:34:00,
2013-05-12 17:39:00,48.7,28.9,30.08,NW,304,3.0,12.0,46,0.00,,---,0.00,VWS V14.01,2013-05-12 21:39:00,
2013-05-12 17:44:00,48.5,28.7,30.08,NNW,340,7.0,12.0,46,0.00,,---,0.00,VWS V14.01,2013-05-12 21:44:00,
2013-05-12 17:49:00,48.7,30.4,30.08,NW,307,1.0,14.0,49,0.00,,---,0.00,VWS V14.01,2013-05-12 21:49:00,
2013-05-12 17:54:00,48.9,29.0,30.08,SW,231,8.0,14.0,46,0.00,,---,0.00,VWS V14.01,2013-05-12 21:54:00,
2013-05-12 17:59:00,48.6,28.8,30.08,NW,325,9.0,14.0,46,0.00,,---,0.00,VWS V14.01,2013-05-12 21:59:00,
2013-05-12 18:00:00,48.3,28.5,30.08,NW,318,7.0,14.0,46,0.00,,---,0.00,VWS V14.01,2013-05-12 22:00:00,
2013-05-12 18:04:00,48.2,28.9,30.08,NNE,32,3.0,13.0,47,0.00,,---,0.00,VWS V14.01,2013-05-12 22:04:00,
2013-05-12 18:09:00,48.6,29.3,30.08,NNW,328,7.0,14.0,47,0.00,,---,0.00,VWS V14.01,2013-05-12 22:09:00,
2013-05-12 18:14:00,48.4,28.6,30.08,NNE,12,5.0,14.0,46,0.00,,---,0.00,VWS V14.01,2013-05-12 22:14:00,
2013-05-12 18:19:00,48.2,28.9,30.08,West,281,4.0,14.0,47,0.00,,---,0.00,VWS V14.01,2013-05-12 22:19:00,
2013-05-12 18:24:00,48.7,28.9,30.08,NW,319,3.0,14.0,46,0.00,,---,0.00,VWS V14.01,2013-05-12 22:24:00,
2013-05-12 18:29:00,48.6,29.3,30.08,North,6,4.0,14.0,47,0.00,,---,0.00,VWS V14.01,2013-05-12 22:29:00,
2013-05-12 18:30:00,48.6,29.3,30.08,NNW,338,7.0,14.0,47,0.00,,---,0.00,VWS V14.01,2013-05-12 22:30:00,
2013-05-12 18:34:00,48.7,29.4,30.07,NNW,348,6.0,11.0,47,0.00,,---,0.00,VWS V14.01,2013-05-12 22:34:00,
2013-05-12 18:39:00,48.4,29.1,30.08,WNW,298,5.0,12.0,47,0.00,,---,0.00,VWS V14.01,2013-05-12 22:39:00,
2013-05-12 18:44:00,48.6,29.3,30.07,West,271,6.0,12.0,47,0.00,,---,0.00,VWS V14.01,2013-05-12 22:44:00,
2013-05-12 18:49:00,48.3,29.0,30.07,NW,317,3.0,12.0,47,0.00,,---,0.00,VWS V14.01,2013-05-12 22:49:00,
2013-05-12 18:54:00,48.0,29.3,30.07,NW,317,7.0,12.0,48,0.00,,---,0.00,VWS V14.01,2013-05-12 22:54:00,
2013-05-12 18:59:00,48.5,28.7,30.07,WNW,300,4.0,12.0,46,0.00,,---,0.00,VWS V14.01,2013-05-12 22:59:00,
2013-05-12 19:00:00,48.7,28.9,30.07,NW,321,4.0,12.0,46,0.00,,---,0.00,VWS V14.01,2013-05-12 23:00:00,
2013-05-12 19:04:00,48.9,29.0,30.07,NNW,332,3.0,7.0,46,0.00,,---,0.00,VWS V14.01,2013-05-12 23:04:00,
2013-05-12 19:09:00,49.1,29.8,30.07,WSW,253,0.0,12.0,47,0.00,,---,0.00,VWS V14.01,2013-05-12 23:09:00,
2013-05-12 19:14:00,49.4,29.0,30.07,North,352,6.0,12.0,45,0.00,,---,0.00,VWS V14.01,2013-05-12 23:14:00,
2013-05-12 19:19:00,48.9,28.0,30.07,North,354,5.0,12.0,44,0.00,,---,0.00,VWS V14.01,2013-05-12 23:19:00,
2013-05-12 19:24:00,48.5,29.2,30.07,NNW,333,3.0,12.0,47,0.00,,---,0.00,VWS V14.01,2013-05-12 23:24:00,
2013-05-12 19:29:00,48.3,28.5,30.07,North,352,5.0,12.0,46,0.00,,---,0.00,VWS V14.01,2013-05-12 23:29:00,
2013-05-12 19:30:00,48.3,28.5,30.07,NNE,19,4.0,12.0,46,0.00,,---,0.00,VWS V14.01,2013-05-12 23:30:00,
2013-05-12 19:34:00,48.3,29.0,30.08,NNW,347,6.0,9.0,47,0.00,,---,0.00,VWS V14.01,2013-05-12 23:34:00,
2013-05-12 19:39:00,48.3,29.0,30.07,NW,314,6.0,11.0,47,0.00,,---,0.00,VWS V14.01,2013-05-12 23:39:00,
2013-05-12 19:44:00,48.5,29.2,30.07,WNW,300,5.0,11.0,47,0.00,,---,0.00,VWS V14.01,2013-05-12 23:44:00,
2013-05-12 19:49:00,48.3,30.0,30.07,NW,314,3.0,13.0,49,0.00,,---,0.00,VWS V14.01,2013-05-12 23:49:00,
2013-05-12 19:54:00,48.0,29.3,30.07,NNW,348,2.0,13.0,48,0.00,,---,0.00,VWS V14.01,2013-05-12 23:54:00,
2013-05-12 19:59:00,47.8,28.6,30.08,NNW,347,9.0,13.0,47,0.00,,---,0.00,VWS V14.01,2013-05-12 23:59:00,
2013-05-12 20:00:00,47.7,28.5,30.08,NNW,327,5.0,13.0,47,0.00,,---,0.00,VWS V14.01,2013-05-13 00:00:00,
2013-05-12 20:04:00,47.4,28.7,30.08,North,356,8.0,9.0,48,0.00,,---,0.00,VWS V14.01,2013-05-13 00:04:00,
2013-05-12 20:10:00,46.9,28.8,30.08,NW,304,4.0,9.0,49,0.00,,---,0.00,VWS V14.01,2013-05-13 00:10:00,
2013-05-12 20:15:00,46.7,28.1,30.08,NNW,330,6.0,9.0,48,0.00,,---,0.00,VWS V14.01,2013-05-13 00:15:00,
2013-05-12 20:20:00,46.4,28.3,30.07,WNW,301,2.0,11.0,49,0.00,,---,0.00,VWS V14.01,2013-05-13 00:20:00,
2013-05-12 20:25:00,46.1,28.5,30.08,North,356,5.0,11.0,50,0.00,,---,0.00,VWS V14.01,2013-05-13 00:25:00,
2013-05-12 20:30:00,46.0,27.9,30.08,NW,326,5.0,11.0,49,0.00,,---,0.00,VWS V14.01,2013-05-13 00:30:00,
2013-05-12 20:35:00,45.9,27.8,30.08,NNW,345,4.0,6.0,49,0.00,,---,0.00,VWS V14.01,2013-05-13 00:35:00,
2013-05-12 20:40:00,45.5,28.4,30.08,NNW,347,4.0,7.0,51,0.00,,---,0.00,VWS V14.01,2013-05-13 00:40:00,
2013-05-12 20:45:00,45.3,28.2,30.08,NNW,333,2.0,8.0,51,0.00,,---,0.00,VWS V14.01,2013-05-13 00:45:00,
2013-05-12 20:50:00,45.0,28.0,30.08,NW,314,3.0,8.0,51,0.00,,---,0.00,VWS V14.01,2013-05-13 00:50:00,
2013-05-12 20:55:00,44.7,28.2,30.08,NNW,343,3.0,8.0,52,0.00,,---,0.00,VWS V14.01,2013-05-13 00:55:00,
2013-05-12 21:00:00,44.2,28.2,30.08,NNW,327,3.0,8.0,53,0.00,,---,0.00,VWS V14.01,2013-05-13 01:00:00,
2013-05-12 21:05:00,44.0,28.4,30.08,NNW,342,2.0,5.0,54,0.00,,---,0.00,VWS V14.01,2013-05-13 01:05:00,
2013-05-12 21:10:00,43.7,28.6,30.08,NNW,337,2.0,5.0,55,0.00,,---,0.00,VWS V14.01,2013-05-13 01:10:00,
2013-05-12 21:15:00,43.1,28.5,30.09,NNW,337,2.0,5.0,56,0.00,,---,0.00,VWS V14.01,2013-05-13 01:15:00,
2013-05-12 21:20:00,42.5,28.4,30.09,NW,321,2.0,5.0,57,0.00,,---,0.00,VWS V14.01,2013-05-13 01:20:00,
2013-05-12 21:25:00,42.1,28.4,30.09,NNW,333,0.0,5.0,58,0.00,,---,0.00,VWS V14.01,2013-05-13 01:25:00,
2013-05-12 21:30:00,41.4,29.0,30.09,NNW,333,0.0,5.0,61,0.00,,---,0.00,VWS V14.01,2013-05-13 01:30:00,
2013-05-12 21:35:00,40.9,29.3,30.09,NNW,333,0.0,0.0,63,0.00,,---,0.00,VWS V14.01,2013-05-13 01:35:00,
2013-05-12 21:40:00,40.4,29.6,30.10,NNW,331,0.0,0.0,65,0.00,,---,0.00,VWS V14.01,2013-05-13 01:40:00,
2013-05-12 21:45:00,39.7,29.3,30.10,NNW,331,0.0,0.0,66,0.00,,---,0.00,VWS V14.01,2013-05-13 01:45:00,
2013-05-12 21:50:00,39.2,29.2,30.10,NNW,331,0.0,0.0,67,0.00,,---,0.00,VWS V14.01,2013-05-13 01:50:00,
2013-05-12 21:55:00,38.8,29.2,30.11,NNW,331,0.0,0.0,68,0.00,,---,0.00,VWS V14.01,2013-05-13 01:55:00,
2013-05-12 22:00:00,38.5,29.2,30.11,NNW,331,0.0,0.0,69,0.00,,---,0.00,VWS V14.01,2013-05-13 02:00:00,
2013-05-12 22:05:00,38.3,29.0,30.11,NNW,331,0.0,0.0,69,0.00,,---,0.00,VWS V14.01,2013-05-13 02:05:00,
2013-05-12 22:10:00,37.9,29.4,30.12,NNW,331,0.0,0.0,71,0.00,,---,0.00,VWS V14.01,2013-05-13 02:10:00,
2013-05-12 22:15:00,37.5,29.0,30.12,NNW,331,0.0,0.0,71,0.00,,---,0.00,VWS V14.01,2013-05-13 02:15:00,
2013-05-12 22:20:00,37.5,29.3,30.12,NNW,332,0.0,0.0,72,0.00,,---,0.00,VWS V14.01,2013-05-13 02:20:00,
2013-05-12 22:25:00,37.3,29.5,30.12,NNW,332,0.0,0.0,73,0.00,,---,0.00,VWS V14.01,2013-05-13 02:25:00,
2013-05-12 22:30:00,37.2,29.4,30.12,NNW,332,0.0,0.0,73,0.00,,---,0.00,VWS V14.01,2013-05-13 02:30:00,
2013-05-12 22:35:00,37.3,29.1,30.12,NNW,331,0.0,0.0,72,0.00,,---,0.00,VWS V14.01,2013-05-13 02:35:00,
2013-05-12 22:40:00,37.3,29.1,30.12,NNW,331,0.0,0.0,72,0.00,,---,0.00,VWS V14.01,2013-05-13 02:40:00,
2013-05-12 22:45:00,37.2,30.0,30.13,NNW,331,0.0,0.0,75,0.00,,---,0.00,VWS V14.01,2013-05-13 02:45:00,
2013-05-12 22:50:00,37.1,29.9,30.13,NNW,332,0.0,0.0,75,0.00,,---,0.00,VWS V14.01,2013-05-13 02:50:00,
2013-05-12 22:55:00,36.8,30.0,30.13,NNW,332,0.0,0.0,76,0.00,,---,0.00,VWS V14.01,2013-05-13 02:55:00,
2013-05-12 23:00:00,36.5,30.0,30.12,NNW,331,0.0,0.0,77,0.00,,---,0.00,VWS V14.01,2013-05-13 03:00:00,
2013-05-12 23:05:00,36.2,30.3,30.12,NNW,331,0.0,0.0,79,0.00,,---,0.00,VWS V14.01,2013-05-13 03:05:00,
2013-05-12 23:10:00,35.9,30.0,30.12,NNW,331,0.0,0.0,79,0.00,,---,0.00,VWS V14.01,2013-05-13 03:10:00,
2013-05-12 23:15:00,36.1,30.8,30.13,NNW,331,0.0,1.0,81,0.00,,---,0.00,VWS V14.01,2013-05-13 03:15:00,
2013-05-12 23:20:00,36.1,30.8,30.12,NNW,331,0.0,1.0,81,0.00,,---,0.00,VWS V14.01,2013-05-13 03:20:00,
2013-05-12 23:25:00,36.1,30.8,30.12,NNW,337,0.0,1.0,81,0.00,,---,0.00,VWS V14.01,2013-05-13 03:25:00,
2013-05-12 23:30:00,36.0,30.4,30.12,NNW,338,0.0,0.0,80,0.00,,---,0.00,VWS V14.01,2013-05-13 03:30:00,
2013-05-12 23:35:00,35.8,30.9,30.13,NNW,338,0.0,0.0,82,0.00,,---,0.00,VWS V14.01,2013-05-13 03:35:00,
2013-05-12 23:40:00,35.5,30.9,30.13,NNW,337,0.0,0.0,83,0.00,,---,0.00,VWS V14.01,2013-05-13 03:40:00,
2013-05-12 23:45:00,35.1,30.5,30.12,NNW,338,0.0,1.0,83,0.00,,---,0.00,VWS V14.01,2013-05-13 03:45:00,
2013-05-12 23:50:00,34.7,30.1,30.13,NNW,337,0.0,1.0,83,0.00,,---,0.00,VWS V14.01,2013-05-13 03:50:00,
2013-05-12 23:55:00,34.5,29.9,30.12,NNW,338,0.0,1.0,83,0.00,,---,0.00,VWS V14.01,2013-05-13 03:55:00,